sat.trackr.live / text

‹ back to catalog

STARLINK-3634

NORAD 51798 · 2022-017AG

PAYLOAD ACTIVE UNKNOWN

§ Identity

Operator
Country
US
Launch date
2022-02-25
Launch site
AFWTR
Launch vehicle
Mass (kg)
RCS (m²)

Purposes: comms

External: N2YO · Heavens-Above · Gunter

§ Orbital elements

Epoch: 2026-09-20T01:27:48.515616Z

Period
93.85 min
Inclination
53.1618°
Eccentricity
0.0001517
Mean motion
15.34388704 rev/d
Perigee alt
461.7 km
Apogee alt
463.8 km
Semi-major
6,840.9 km
B*
-4.9958e-6
RAAN
180.1160°
Arg perigee
85.0795°
Mean anomaly
275.0380°
Rev number
25,353

§ Raw data

STARLINK-36341 51798U 22017AG  26263.06097819 -.00000545  00000+0 -49958-5 0  99962 51798  53.1618 180.1160 0001517  85.0795 275.0380 15.34388704253537

JSON: /api/v1/satellites/51798 · /tle

For live sub-satellite position, see the globe view (requires WebGL).

§ Visibility from observer

Set your observer location to see the next 7 days of passes ≥ 10°. The values pass through the URL so the page stays shareable.

No JS? Fill the form by hand. The geolocation button needs JavaScript.